Location: �bnet
(46.9957°N, 8.4908°E)
Time: 03:00:55
(UTC+00:00)

ARIANE 5 R/B - Pass Details

Date: 11 May 2021
Orbit: 620 x 656 km, 98.1° (Epoch: 13 June)

Event Time Altitude Azimuth Distance (km) Brightness Sun altitude
Exits shadow 20:52:23 26° 176° (S) 1,222 3.6 -16.7°
Maximum altitude 20:54:45 74° 257° (WSW) 651 2.7 -16.9°
Drops below altitude 10° 20:59:05 10° 343° (NNW) 1,999 6.3 -17.4°
Sets 21:01:18 0° 345° (NNW) 2,911 7.3 -17.6°
